FW8570 Weather Reports


time (UTC)temp
C
wind
direction
speed
KPH
gust
KPH
rain 1hr
cm
rain 24hr
cm
rain mn
cm
humidity
%
barometer
mb
20260906104148 22 83 1.6 1.6 0.00 0.00 0.00 99 1012.4
20260906103646 22 77 0.0 0.0 0.00 0.00 0.00 99 1012.2
20260906103142 22 52 1.6 1.6 0.00 0.00 0.00 99 1012.1
20260906102637 22 59 1.6 1.6 0.00 0.00 0.00 99 1012.2
20260906102131 22 50 0.0 0.0 0.00 0.00 0.00 99 1012.3
20260906101631 22 45 1.6 1.6 0.00 0.00 0.00 99 1012.1
20260906101126 21 65 3.2 3.2 0.00 0.00 0.00 99 1012.0
20260906100621 21 62 3.2 3.2 0.00 0.00 0.00 99 1012.1
20260906100116 22 75 1.6 1.6 0.00 0.00 0.00 99 1012.0
20260906095616 21 57 1.6 1.6 0.00 0.00 0.00 99 1012.1
20260906095111 21 46 3.2 3.2 0.00 0.00 0.00 99 1012.3
20260906094610 21 64 1.6 3.2 0.00 0.00 0.00 99 1011.8
20260906094106 21 70 1.6 3.2 0.00 0.00 0.00 99 1011.9
20260906093602 21 73 1.6 1.6 0.00 0.00 0.00 99 1012.0
20260906093056 21 78 1.6 1.6 0.00 0.00 0.00 99 1012.1
20260906092552 21 79 1.6 1.6 0.00 0.00 0.00 99 1011.9
20260906092047 21 122 0.0 0.0 0.00 0.00 0.00 99 1011.9
20260906091542 21 122 0.0 0.0 0.00 0.00 0.00 99 1012.0
20260906091040 21 123 0.0 0.0 0.00 0.00 0.00 99 1011.9
20260906090539 21 123 0.0 0.0 0.00 0.00 0.00 99 1011.8
20260906090034 21 123 0.0 0.0 0.00 0.00 0.00 99 1011.8
20260906085533 21 123 0.0 0.0 0.00 0.00 0.00 99 1011.8
20260906085033 21 123 0.0 0.0 0.00 0.00 0.00 99 1011.8
20260906084527 21 123 0.0 0.0 0.00 0.00 0.00 99 1011.9
20260906084026 21 131 0.0 0.0 0.00 0.00 0.00 99 1011.8
20260906083522 21 131 0.0 0.0 0.00 0.00 0.00 99 1011.8
20260906083021 21 131 0.0 0.0 0.00 0.00 0.00 99 1011.8
20260906082516 21 131 0.0 0.0 0.00 0.00 0.00 99 1011.8
20260906082012 21 131 0.0 0.0 0.00 0.00 0.00 99 1011.8
20260906081508 21 131 0.0 0.0 0.00 0.00 0.00 99 1012.0
20260906081003 21 131 0.0 0.0 0.00 0.00 0.00 99 1011.8
20260906080500 22 133 0.0 0.0 0.00 0.00 0.00 99 1011.6
20260906075955 22 134 0.0 0.0 0.00 0.00 0.00 99 1011.9
20260906075450 22 103 0.0 0.0 0.00 0.00 0.00 99 1011.6
20260906074945 22 95 0.0 0.0 0.00 0.00 0.00 99 1011.7
20260906074444 22 95 0.0 0.0 0.00 0.00 0.00 99 1011.7
20260906073943 22 95 0.0 0.0 0.00 0.00 0.00 99 1011.7
20260906073438 22 95 0.0 0.0 0.00 0.00 0.00 99 1011.6
20260906072934 22 95 0.0 0.0 0.00 0.00 0.00 99 1011.8
20260906072429 22 95 0.0 1.6 0.00 0.00 0.00 99 1011.7
20260906071925 22 87 0.0 0.0 0.00 0.00 0.00 99 1011.6
20260906071421 22 98 0.0 0.0 0.00 0.00 0.00 99 1011.7
20260906070917 22 98 0.0 0.0 0.00 0.00 0.00 99 1011.9
20260906070413 22 97 0.0 0.0 0.00 0.00 0.00 99 1011.7
20260906065908 22 102 0.0 0.0 0.00 0.00 0.00 99 1011.9
20260906065402 22 85 0.0 1.6 0.00 0.00 0.00 99 1011.9
20260906064858 22 96 1.6 1.6 0.00 0.00 0.00 99 1012.0
20260906064355 22 75 0.0 1.6 0.00 0.00 0.00 99 1012.1
20260906063854 22 83 1.6 3.2 0.00 0.00 0.00 99 1012.0
20260906063349 22 90 1.6 1.6 0.00 0.00 0.00 99 1012.0
20260906062844 22 37 3.2 4.8 0.00 0.00 0.00 99 1012.2
20260906062343 22 91 1.6 1.6 0.00 0.00 0.00 99 1012.4
20260906061839 22 101 0.0 0.0 0.00 0.00 0.00 99 1012.2
20260906061336 22 51 3.2 3.2 0.00 0.00 0.00 99 1012.2
20260906060830 22 39 6.4 6.4 0.00 0.00 0.00 99 1012.2
20260906060328 22 125 1.6 1.6 0.00 0.00 0.00 99 1012.0
20260906055823 22 123 0.0 0.0 0.00 0.00 0.00 99 1012.0
20260906055319 22 123 0.0 0.0 0.00 0.00 0.00 99 1011.9
20260906054814 22 117 0.0 0.0 0.00 0.00 0.00 99 1012.0
20260906054309 22 117 0.0 0.0 0.00 0.00 0.00 99 1012.0
20260906053806 22 117 0.0 0.0 0.00 0.00 0.00 99 1012.1
20260906053301 22 117 0.0 0.0 0.00 0.00 0.00 99 1012.0
20260906052756 22 116 0.0 0.0 0.00 0.00 0.00 99 1012.2
20260906052252 22 122 0.0 0.0 0.00 0.00 0.00 99 1012.0
20260906051749 22 126 0.0 0.0 0.00 0.00 0.00 99 1012.1
20260906051248 22 117 0.0 0.0 0.00 0.00 0.00 99 1012.2
20260906050744 22 117 0.0 0.0 0.00 0.00 0.00 99 1012.2
20260906050239 22 117 0.0 1.6 0.00 0.00 0.00 99 1012.2
20260906045732 22 92 1.6 1.6 0.00 2.21 2.21 99 1012.2
20260906045227 22 131 0.0 0.0 0.00 2.21 2.21 99 1012.3
20260906044722 22 132 0.0 1.6 0.00 2.21 2.21 99 1012.1
20260906044217 22 133 0.0 0.0 0.00 2.21 2.21 99 1012.1
20260906043708 22 144 1.6 1.6 0.00 2.21 2.21 99 1012.2
20260906043203 22 138 1.6 1.6 0.00 2.21 2.21 99 1012.2
20260906042703 22 148 1.6 1.6 0.00 2.21 2.21 99 1012.1
20260906042156 22 153 3.2 3.2 0.00 2.21 2.21 99 1012.1
20260906041652 22 124 0.0 1.6 0.00 2.21 2.21 99 1012.2
20260906041147 22 123 0.0 0.0 0.00 2.21 2.21 99 1012.0
20260906040643 22 125 0.0 0.0 0.00 2.21 2.21 99 1012.1
20260906040138 22 131 0.0 0.0 0.00 2.21 2.21 99 1012.1
20260906035633 22 144 1.6 1.6 0.00 2.21 2.21 99 1012.0
20260906035129 22 125 1.6 1.6 0.00 2.21 2.21 99 1012.1
20260906034630 22 172 3.2 3.2 0.00 2.21 2.21 99 1011.9
20260906034124 22 156 1.6 1.6 0.00 2.21 2.21 99 1011.9
20260906033620 22 141 0.0 0.0 0.00 2.21 2.21 99 1012.1
20260906033120 22 189 3.2 3.2 0.00 2.21 2.21 99 1011.9
20260906032617 22 135 0.0 1.6 0.00 2.21 2.21 99 1011.8
20260906032116 22 153 3.2 3.2 0.00 2.21 2.21 99 1011.9
20260906031612 22 146 1.6 1.6 0.00 2.21 2.21 99 1011.9
20260906031107 22 123 0.0 0.0 0.00 2.21 2.21 99 1011.7
20260906030606 22 132 0.0 1.6 0.00 2.21 2.21 99 1011.8
20260906030101 22 124 0.0 0.0 0.00 2.21 2.21 99 1011.8
20260906025555 22 123 0.0 0.0 0.00 2.21 2.21 99 1011.4
20260906025054 22 127 0.0 0.0 0.00 2.21 2.21 99 1011.7
20260906024549 22 123 0.0 0.0 0.00 2.21 2.21 99 1011.5
20260906024043 22 125 0.0 0.0 0.00 2.21 2.21 99 1011.3
20260906023539 22 109 0.0 0.0 0.00 2.21 2.21 99 1011.0
20260906023034 22 109 0.0 0.0 0.00 2.21 2.21 99 1011.2
20260906022529 22 109 0.0 0.0 0.00 2.21 2.21 99 1010.8
20260906022024 22 109 0.0 0.0 0.00 2.21 2.21 99 1010.8
20260906021520 22 110 1.6 1.6 0.00 2.21 2.21 99 1010.7
20260906021020 22 118 0.0 0.0 0.00 2.21 2.21 99 1010.5
20260906020519 22 105 1.6 1.6 0.00 2.21 2.21 99 1010.6
20260906020019 22 105 0.0 0.0 0.00 2.21 2.21 99 1010.6
20260906015518 22 124 0.0 0.0 0.00 2.21 2.21 99 1010.6
20260906015018 22 129 0.0 0.0 0.00 2.21 2.21 99 1010.6
20260906014513 22 126 0.0 0.0 0.00 2.21 2.21 99 1010.7
20260906014009 22 136 1.6 1.6 0.00 2.21 2.21 99 1010.5
20260906013503 22 122 0.0 0.0 0.00 2.21 2.21 99 1010.6
20260906012959 22 116 0.0 0.0 0.00 2.21 2.21 99 1010.5
20260906012454 22 121 0.0 1.6 0.00 2.21 2.21 99 1010.7
20260906011953 22 83 1.6 3.2 0.00 2.21 2.21 99 1010.6
20260906011449 22 138 4.8 4.8 0.00 2.21 2.21 99 1011.0
20260906010944 21 170 1.6 1.6 0.13 2.21 2.21 99 1011.3
20260906010440 22 228 4.8 4.8 2.59 2.21 2.21 99 1011.2
20260906005936 22 148 3.2 3.2 4.27 2.18 2.18 99 1011.4
20260906005436 22 111 3.2 3.2 2.87 1.83 1.83 96 1011.8
20260906004934 23 136 3.2 3.2 1.07 1.52 1.52 97 1011.5
20260906004428 23 189 4.8 9.7 2.16 1.35 1.35 96 1011.2
20260906003924 23 164 14.5 16.1 4.45 1.35 1.35 93 1010.6
20260906003419 23 242 6.4 12.9 5.94 1.02 1.02 94 1012.2
20260906002915 24 358 9.7 12.9 2.95 0.48 0.48 88 1012.7
20260906002414 27 18 24.1 29.0 0.18 0.03 0.03 80 1012.4
20260906001915 28 7 14.5 16.1 0.00 0.00 0.00 73 1011.5
20260906001410 27 98 3.2 3.2 0.00 0.00 0.00 72 1010.8
20260906000910 27 146 3.2 3.2 0.00 0.00 0.00 73 1009.8
20260906000406 28 128 4.8 4.8 0.00 0.00 0.00 73 1010.0
20260905235900 28 147 1.6 1.6 0.00 0.00 0.00 71 1010.3
20260905235355 28 144 3.2 3.2 0.00 0.00 0.00 69 1010.6
20260905234850 28 129 3.2 3.2 0.00 0.00 0.00 70 1010.8
20260905234345 28 150 4.8 4.8 0.00 0.00 0.00 70 1010.8
20260905233840 28 134 3.2 3.2 0.00 0.00 0.00 68 1010.9
20260905233335 30 133 1.6 3.2 0.00 0.00 0.00 64 1010.9
20260905232834 30 130 4.8 4.8 0.00 0.00 0.00 64 1010.8
20260905232331 30 170 16.1 17.7 0.00 0.00 0.00 62 1010.6
20260905231826 30 156 3.2 3.2 0.00 0.00 0.00 61 1010.6
20260905231321 30 183 6.4 6.4 0.00 0.00 0.00 63 1010.2
20260905230817 30 136 0.0 1.6 0.00 0.00 0.00 62 1010.2
20260905230315 30 147 1.6 1.6 0.00 0.00 0.00 61 1010.1
20260905225815 30 144 3.2 3.2 0.00 0.00 0.00 64 1010.0
20260905225310 30 150 3.2 3.2 0.00 0.00 0.00 61 1010.2
20260905224809 30 141 1.6 3.2 0.00 0.00 0.00 62 1010.1
20260905224305 31 153 3.2 3.2 0.00 0.00 0.00 62 1010.1
20260905223800 31 166 3.2 3.2 0.00 0.00 0.00 60 1010.0
20260905223258 31 119 1.6 1.6 0.00 0.00 0.00 58 1009.8
20260905222753 31 124 3.2 3.2 0.00 0.00 0.00 58 1010.0
20260905222252 32 174 3.2 4.8 0.00 0.00 0.00 53 1010.0
20260905221748 32 117 4.8 4.8 0.00 0.00 0.00 56 1010.1
20260905221244 32 122 3.2 3.2 0.00 0.00 0.00 58 1010.2
20260905220740 33 148 1.6 1.6 0.00 0.00 0.00 53 1010.0
20260905220236 33 151 4.8 4.8 0.00 0.00 0.00 54 1010.0
20260905215735 33 127 3.2 3.2 0.00 0.00 0.00 55 1010.1
20260905215231 33 174 6.4 6.4 0.00 0.00 0.00 59 1010.2
20260905214727 33 149 3.2 3.2 0.00 0.00 0.00 66 1010.1
20260905214222 33 129 3.2 3.2 0.00 0.00 0.00 67 1010.0
20260905213717 34 149 1.6 1.6 0.00 0.00 0.00 61 1010.0
20260905213213 34 140 1.6 1.6 0.00 0.00 0.00 63 1009.9
20260905212708 33 123 3.2 3.2 0.00 0.00 0.00 61 1009.7
20260905212207 33 128 3.2 4.8 0.00 0.00 0.00 64 1009.9
20260905211702 33 105 0.0 0.0 0.00 0.00 0.00 62 1010.0
20260905211157 33 128 1.6 1.6 0.00 0.00 0.00 64 1010.2
20260905210654 34 114 0.0 1.6 0.00 0.00 0.00 60 1010.2
20260905210154 35 110 3.2 3.2 0.00 0.00 0.00 58 1010.1
20260905205653 36 97 0.0 0.0 0.00 0.00 0.00 54 1010.4
20260905205153 37 15 6.4 6.4 0.00 0.00 0.00 50 1010.3
20260905204652 37 102 1.6 3.2 0.00 0.00 0.00 48 1010.3
20260905204148 37 135 0.0 1.6 0.00 0.00 0.00 45 1010.3
20260905203642 39 115 4.8 6.4 0.00 0.00 0.00 43 1010.3
20260905203138 39 84 1.6 3.2 0.00 0.00 0.00 42 1010.5
20260905202633 38 147 1.6 1.6 0.00 0.00 0.00 44 1010.4
20260905202128 37 114 6.4 6.4 0.00 0.00 0.00 47 1010.4
20260905201624 37 118 4.8 9.7 0.00 0.00 0.00 47 1010.4
20260905201123 37 197 8.0 11.3 0.00 0.00 0.00 48 1010.5
20260905200619 37 135 3.2 4.8 0.00 0.00 0.00 48 1010.7
20260905200114 37 130 1.6 1.6 0.00 0.00 0.00 48 1010.7
20260905195607 37 131 6.4 6.4 0.00 0.00 0.00 49 1010.8
20260905195103 37 123 1.6 1.6 0.00 0.00 0.00 50 1010.8
20260905194602 37 162 3.2 4.8 0.00 0.00 0.00 52 1011.0
20260905194101 36 123 0.0 0.0 0.00 0.00 0.00 52 1010.9
20260905193557 37 5 6.4 6.4 0.00 0.00 0.00 49 1011.3
20260905193052 37 5 9.7 11.3 0.00 0.00 0.00 48 1011.2
20260905192548 37 69 1.6 3.2 0.00 0.00 0.00 49 1011.3
20260905192044 37 18 3.2 3.2 0.00 0.00 0.00 49 1011.3
20260905191542 37 258 4.8 4.8 0.00 0.00 0.00 50 1011.4
20260905191041 36 175 3.2 3.2 0.00 0.00 0.00 52 1011.5
20260905190539 36 135 8.0 9.7 0.00 0.00 0.00 52 1011.8
20260905190033 35 115 6.4 9.7 0.00 0.00 0.00 54 1011.9
20260905185533 36 138 11.3 12.9 0.00 0.00 0.00 52 1011.9
20260905185033 36 69 4.8 6.4 0.00 0.00 0.00 52 1012.0
20260905184532 36 134 4.8 6.4 0.00 0.00 0.00 52 1012.1
20260905184026 37 136 6.4 9.7 0.00 0.00 0.00 51 1012.1
20260905183525 36 240 8.0 9.7 0.00 0.00 0.00 52 1012.1
20260905183020 36 149 6.4 9.7 0.00 0.00 0.00 54 1012.3
20260905182515 36 155 4.8 4.8 0.00 0.00 0.00 53 1012.2
20260905182009 35 91 3.2 3.2 0.00 0.00 0.00 53 1012.2
20260905181504 35 105 0.0 1.6 0.00 0.00 0.00 54 1012.3
20260905181003 35 48 3.2 6.4 0.00 0.00 0.00 54 1012.4
20260905180458 35 154 4.8 4.8 0.00 0.00 0.00 55 1012.5
20260905175954 35 14 1.6 4.8 0.00 0.00 0.00 55 1012.7
20260905175453 35 97 6.4 6.4 0.00 0.00 0.00 57 1012.5
20260905174948 35 166 4.8 4.8 0.00 0.00 0.00 55 1012.7
20260905174443 35 150 6.4 6.4 0.00 0.00 0.00 57 1012.8
20260905173939 35 40 4.8 4.8 0.00 0.00 0.00 55 1012.9
20260905173435 35 32 4.8 6.4 0.00 0.00 0.00 56 1012.8
20260905172930 35 37 8.0 11.3 0.00 0.00 0.00 55 1012.8
20260905172428 35 349 12.9 16.1 0.00 0.00 0.00 55 1013.1
20260905171924 35 125 3.2 4.8 0.00 0.00 0.00 56 1013.0
20260905171421 35 105 1.6 1.6 0.00 0.00 0.00 56 1012.9
20260905170916 35 124 0.0 0.0 0.00 0.00 0.00 56 1013.2
20260905170412 35 125 0.0 1.6 0.00 0.00 0.00 56 1013.1
20260905165912 35 62 1.6 1.6 0.00 0.00 0.00 57 1013.3
20260905165407 35 188 0.0 1.6 0.00 0.00 0.00 57 1013.3
20260905164902 34 128 3.2 3.2 0.00 0.00 0.00 58 1013.3
20260905164356 34 120 6.4 6.4 0.00 0.00 0.00 59 1013.5
20260905163852 34 25 3.2 4.8 0.00 0.00 0.00 58 1013.5
20260905163348 35 132 6.4 9.7 0.00 0.00 0.00 58 1013.7
20260905162844 34 127 0.0 1.6 0.00 0.00 0.00 60 1013.5
20260905162343 34 102 3.2 3.2 0.00 0.00 0.00 59 1013.8
20260905161838 33 111 3.2 3.2 0.00 0.00 0.00 60 1013.7
20260905161338 34 259 4.8 4.8 0.00 0.00 0.00 58 1013.9
20260905160836 33 47 3.2 4.8 0.00 0.00 0.00 60 1013.9
20260905160330 33 102 3.2 3.2 0.00 0.00 0.00 61 1013.8
20260905155825 33 48 6.4 6.4 0.00 0.00 0.00 61 1013.9
20260905155324 33 357 4.8 6.4 0.00 0.00 0.00 61 1013.9
20260905154819 33 181 6.4 6.4 0.00 0.00 0.00 58 1013.9
20260905154314 33 103 4.8 9.7 0.00 0.00 0.00 60 1013.9
20260905153809 33 120 1.6 1.6 0.00 0.00 0.00 62 1013.9
20260905153307 33 121 3.2 4.8 0.00 0.00 0.00 62 1013.9
20260905152806 32 42 8.0 9.7 0.00 0.00 0.00 62 1014.1
20260905152306 33 6 6.4 9.7 0.00 0.00 0.00 60 1013.8
20260905151800 34 35 1.6 3.2 0.00 0.00 0.00 56 1013.7
20260905151256 34 47 3.2 4.8 0.00 0.00 0.00 56 1013.9
20260905150755 33 349 6.4 6.4 0.00 0.00 0.00 57 1013.9
20260905150250 33 255 3.2 3.2 0.00 0.00 0.00 58 1014.0
20260905145747 33 24 0.0 0.0 0.00 0.00 0.00 59 1013.8
20260905145242 33 36 1.6 3.2 0.00 0.00 0.00 60 1013.8
20260905144741 33 7 6.4 9.7 0.00 0.00 0.00 58 1013.9
20260905144236 33 13 4.8 6.4 0.00 0.00 0.00 60 1013.8
20260905143736 33 70 0.0 1.6 0.00 0.00 0.00 64 1013.9
20260905143235 32 98 0.0 1.6 0.00 0.00 0.00 67 1014.0
20260905142733 32 90 0.0 1.6 0.00 0.00 0.00 65 1013.9
20260905142228 32 83 0.0 1.6 0.00 0.00 0.00 67 1013.9
20260905141725 31 86 1.6 1.6 0.00 0.00 0.00 67 1014.1
20260905141220 31 117 0.0 0.0 0.00 0.00 0.00 68 1014.0
20260905140715 31 100 0.0 1.6 0.00 0.00 0.00 72 1013.9
20260905140214 31 101 1.6 1.6 0.00 0.00 0.00 74 1013.8
20260905135709 30 153 0.0 0.0 0.00 0.00 0.00 73 1013.9
20260905135205 30 174 4.8 4.8 0.00 0.00 0.00 77 1013.8
20260905134704 28 160 1.6 1.6 0.00 0.00 0.00 82 1014.1
20260905134204 28 153 1.6 1.6 0.00 0.00 0.00 85 1014.0
20260905133659 27 170 1.6 3.2 0.00 0.00 0.00 86 1014.1
20260905133154 27 160 1.6 1.6 0.00 0.00 0.00 86 1014.2
20260905132653 27 240 3.2 3.2 0.00 0.00 0.00 88 1014.1
20260905132148 27 158 1.6 1.6 0.00 0.00 0.00 91 1014.3
20260905131644 26 135 1.6 1.6 0.00 0.00 0.00 93 1014.3
20260905131143 26 143 1.6 1.6 0.00 0.00 0.00 95 1014.4
20260905130638 25 110 1.6 1.6 0.00 0.00 0.00 97 1014.3
20260905130138 25 103 1.6 1.6 0.00 0.00 0.00 99 1014.2
20260905125633 24 143 1.6 1.6 0.00 0.00 0.00 99 1014.3
20260905125128 24 149 1.6 1.6 0.00 0.00 0.00 99 1014.3
20260905124625 23 140 1.6 1.6 0.00 0.00 0.00 99 1014.3
20260905124120 23 178 1.6 1.6 0.00 0.00 0.00 99 1014.4
20260905123609 23 140 1.6 1.6 0.00 0.00 0.00 99 1014.5
20260905123106 23 141 0.0 0.0 0.00 0.00 0.00 99 1014.6
20260905122601 23 133 0.0 0.0 0.00 0.00 0.00 99 1014.4
20260905122100 23 141 0.0 0.0 0.00 0.00 0.00 99 1014.3
20260905121555 23 128 0.0 0.0 0.00 0.00 0.00 99 1014.4
20260905121050 23 103 0.0 0.0 0.00 0.00 0.00 99 1014.4
20260905120549 22 129 0.0 0.0 0.00 0.00 0.00 99 1014.1
20260905120045 22 149 1.6 1.6 0.00 0.00 0.00 99 1014.2
20260905115543 22 154 1.6 1.6 0.00 0.00 0.00 99 1013.9
20260905115038 22 137 0.0 1.6 0.00 0.00 0.00 99 1014.0
20260905114538 22 140 0.0 0.0 0.00 0.00 0.00 99 1013.9
20260905114037 22 134 0.0 0.0 0.00 0.00 0.00 99 1013.7
20260905113532 22 132 0.0 0.0 0.00 0.00 0.00 99 1013.6
20260905113027 22 157 1.6 3.2 0.00 0.00 0.00 99 1013.5
20260905112523 22 138 0.0 0.0 0.00 0.00 0.00 99 1013.6
20260905112019 22 134 0.0 0.0 0.00 0.00 0.00 99 1013.5
20260905111519 22 134 0.0 0.0 0.00 0.00 0.00 99 1013.6
20260905111018 22 148 1.6 1.6 0.00 0.00 0.00 99 1013.3
20260905110517 22 140 0.0 0.0 0.00 0.00 0.00 99 1013.3
20260905110013 22 145 0.0 0.0 0.00 0.00 0.00 99 1013.0
20260905105507 23 127 0.0 0.0 0.00 0.00 0.00 99 1013.2
20260905105006 23 127 0.0 0.0 0.00 0.00 0.00 99 1013.0
20260905104502 23 120 0.0 0.0 0.00 0.00 0.00 99 1013.1